Time,TemperatureF,DewpointF,PressureIn,WindDirection,WindDirectionDegrees,WindSpeedMPH,WindSpeedGustMPH,Humidity,HourlyPrecipIn,Conditions,Clouds,dailyrainin,SolarRadiationWatts/m^2,SoftwareType,DateUTC
2013-04-20 00:08:00,45.2,35.0,30.23,NNE,18,10.0,12.0,68,0.00,,,0.00,0,weatherlink.com 1.10,2013-04-20 06:08:00,
2013-04-20 00:23:00,45.3,35.0,30.23,NE,46,5.0,7.0,67,0.00,,,0.00,0,weatherlink.com 1.10,2013-04-20 06:23:00,
2013-04-20 00:38:00,45.0,35.0,30.23,NE,34,0.0,4.0,69,0.00,,,0.00,0,weatherlink.com 1.10,2013-04-20 06:38:00,
2013-04-20 00:53:00,45.1,35.0,30.23,ESE,112,5.0,7.0,69,0.00,,,0.00,0,weatherlink.com 1.10,2013-04-20 06:53:00,
2013-04-20 01:08:00,45.2,35.0,30.24,SE,132,5.0,9.0,68,0.00,,,0.00,0,weatherlink.com 1.10,2013-04-20 07:08:00,
2013-04-20 01:23:00,44.9,35.0,30.23,ESE,119,3.0,9.0,69,0.00,,,0.00,0,weatherlink.com 1.10,2013-04-20 07:23:00,
2013-04-20 01:38:00,44.5,36.0,30.24,NNW,348,2.0,9.0,71,0.00,,,0.00,0,weatherlink.com 1.10,2013-04-20 07:38:00,
2013-04-20 01:53:00,44.4,34.0,30.23,SE,129,6.0,8.0,68,0.00,,,0.00,0,weatherlink.com 1.10,2013-04-20 07:53:00,
2013-04-20 02:08:00,44.9,34.0,30.23,SE,141,10.0,13.0,67,0.00,,,0.00,0,weatherlink.com 1.10,2013-04-20 08:08:00,
2013-04-20 02:23:00,43.3,35.0,30.24,South,186,3.0,14.0,73,0.00,,,0.00,0,weatherlink.com 1.10,2013-04-20 08:23:00,
2013-04-20 02:38:00,43.1,35.0,30.24,ESE,123,9.0,11.0,72,0.00,,,0.00,0,weatherlink.com 1.10,2013-04-20 08:38:00,
2013-04-20 02:53:00,43.6,35.0,30.24,SSE,149,6.0,7.0,71,0.00,,,0.00,0,weatherlink.com 1.10,2013-04-20 08:53:00,
2013-04-20 03:08:00,44.3,35.0,30.24,ESE,109,4.0,7.0,69,0.00,,,0.00,0,weatherlink.com 1.10,2013-04-20 09:08:00,
2013-04-20 03:23:00,45.2,34.0,30.23,ESE,121,3.0,8.0,66,0.00,,,0.00,0,weatherlink.com 1.10,2013-04-20 09:23:00,
2013-04-20 03:38:00,45.4,35.0,30.24,ESE,120,3.0,5.0,66,0.00,,,0.00,0,weatherlink.com 1.10,2013-04-20 09:38:00,
2013-04-20 03:53:00,45.2,34.0,30.24,ESE,106,3.0,5.0,66,0.00,,,0.00,0,weatherlink.com 1.10,2013-04-20 09:53:00,
2013-04-20 04:08:00,44.9,34.0,30.24,East,95,9.0,9.0,66,0.00,,,0.00,0,weatherlink.com 1.10,2013-04-20 10:08:00,
2013-04-20 04:23:00,45.2,34.0,30.24,North,360,8.0,11.0,66,0.00,,,0.00,0,weatherlink.com 1.10,2013-04-20 10:23:00,
2013-04-20 04:38:00,43.6,35.0,30.25,NW,319,6.0,6.0,71,0.00,,,0.00,0,weatherlink.com 1.10,2013-04-20 10:38:00,
2013-04-20 04:53:00,42.4,35.0,30.25,NE,38,3.0,4.0,76,0.00,,,0.00,0,weatherlink.com 1.10,2013-04-20 10:53:00,
2013-04-20 05:08:00,42.7,35.0,30.24,North,355,7.0,9.0,73,0.00,,,0.00,0,weatherlink.com 1.10,2013-04-20 11:08:00,
2013-04-20 05:23:00,42.6,35.0,30.25,NNW,329,5.0,15.0,73,0.00,,,0.00,0,weatherlink.com 1.10,2013-04-20 11:23:00,
2013-04-20 05:38:00,42.3,35.0,30.25,SW,231,1.0,7.0,75,0.00,,,0.00,0,weatherlink.com 1.10,2013-04-20 11:38:00,
2013-04-20 05:53:00,42.3,35.0,30.25,East,90,8.0,8.0,74,0.00,,,0.00,0,weatherlink.com 1.10,2013-04-20 11:53:00,
2013-04-20 06:08:00,42.0,34.0,30.25,East,80,11.0,14.0,74,0.00,,,0.00,0,weatherlink.com 1.10,2013-04-20 12:08:00,
2013-04-20 06:23:00,42.5,34.0,30.25,East,82,6.0,13.0,72,0.00,,,0.00,0,weatherlink.com 1.10,2013-04-20 12:23:00,
2013-04-20 06:38:00,42.5,34.0,30.26,NE,54,4.0,12.0,71,0.00,,,0.00,0,weatherlink.com 1.10,2013-04-20 12:38:00,
2013-04-20 06:53:00,41.1,34.0,30.26,NE,39,8.0,9.0,75,0.00,,,0.00,11,weatherlink.com 1.10,2013-04-20 12:53:00,
2013-04-20 07:08:00,40.7,34.0,30.26,NE,55,6.0,9.0,78,0.00,,,0.00,12,weatherlink.com 1.10,2013-04-20 13:08:00,
2013-04-20 07:23:00,41.3,34.0,30.27,NNE,22,3.0,7.0,76,0.00,,,0.00,21,weatherlink.com 1.10,2013-04-20 13:23:00,
2013-04-20 07:38:00,42.2,34.0,30.27,ENE,62,3.0,6.0,72,0.00,,,0.00,30,weatherlink.com 1.10,2013-04-20 13:38:00,
2013-04-20 07:53:00,44.0,34.0,30.27,SE,142,8.0,11.0,67,0.00,,,0.00,63,weatherlink.com 1.10,2013-04-20 13:53:00,
2013-04-20 08:09:00,42.7,34.0,30.27,SE,125,7.0,10.0,70,0.00,,,0.00,51,weatherlink.com 1.10,2013-04-20 14:09:00,
2013-04-20 08:24:00,43.2,33.0,30.27,South,186,4.0,11.0,68,0.00,,,0.00,58,weatherlink.com 1.10,2013-04-20 14:24:00,
2013-04-20 08:39:00,43.2,34.0,30.28,SSW,212,1.0,11.0,69,0.00,,,0.00,79,weatherlink.com 1.10,2013-04-20 14:39:00,
2013-04-20 08:54:00,42.6,35.0,30.28,NNE,32,6.0,7.0,74,0.00,,,0.00,81,weatherlink.com 1.10,2013-04-20 14:54:00,
2013-04-20 09:09:00,44.3,34.0,30.28,ENE,78,4.0,7.0,66,0.00,,,0.00,171,weatherlink.com 1.10,2013-04-20 15:09:00,
2013-04-20 09:24:00,45.8,33.0,30.29,ESE,114,5.0,10.0,61,0.00,,,0.00,176,weatherlink.com 1.10,2013-04-20 15:24:00,
2013-04-20 09:39:00,46.7,32.0,30.29,ENE,69,5.0,14.0,57,0.00,,,0.00,244,weatherlink.com 1.10,2013-04-20 15:39:00,
2013-04-20 09:54:00,46.9,32.0,30.28,NNE,33,12.0,14.0,56,0.00,,,0.00,264,weatherlink.com 1.10,2013-04-20 15:54:00,
2013-04-20 10:09:00,47.2,31.0,30.29,NNE,32,8.0,16.0,54,0.00,,,0.00,234,weatherlink.com 1.10,2013-04-20 16:09:00,
2013-04-20 10:24:00,47.8,31.0,30.29,SE,125,3.0,7.0,52,0.00,,,0.00,153,weatherlink.com 1.10,2013-04-20 16:24:00,
2013-04-20 10:39:00,47.8,31.0,30.29,NE,55,12.0,15.0,52,0.00,,,0.00,142,weatherlink.com 1.10,2013-04-20 16:39:00,
2013-04-20 10:54:00,48.4,30.0,30.30,NNE,15,14.0,26.0,50,0.00,,,0.00,290,weatherlink.com 1.10,2013-04-20 16:54:00,
2013-04-20 11:09:00,48.6,30.0,30.30,NNW,348,20.0,29.0,49,0.00,,,0.00,290,weatherlink.com 1.10,2013-04-20 17:09:00,
2013-04-20 11:24:00,48.7,29.0,30.29,NNW,335,15.0,27.0,47,0.00,,,0.00,322,weatherlink.com 1.10,2013-04-20 17:24:00,
2013-04-20 11:39:00,49.4,31.0,30.30,NNW,337,21.0,26.0,49,0.00,,,0.00,297,weatherlink.com 1.10,2013-04-20 17:39:00,
2013-04-20 11:54:00,49.4,29.0,30.30,SW,215,5.0,20.0,45,0.00,,,0.00,193,weatherlink.com 1.10,2013-04-20 17:54:00,
2013-04-20 12:09:00,49.2,28.0,30.30,NNW,344,29.0,30.0,44,0.00,,,0.00,139,weatherlink.com 1.10,2013-04-20 18:09:00,
2013-04-20 12:24:00,49.1,29.0,30.30,NW,322,21.0,24.0,46,0.00,,,0.00,160,weatherlink.com 1.10,2013-04-20 18:24:00,
2013-04-20 12:39:00,50.0,29.0,30.30,NW,309,28.0,34.0,45,0.00,,,0.00,269,weatherlink.com 1.10,2013-04-20 18:39:00,
2013-04-20 12:54:00,50.0,29.0,30.31,NNW,343,22.0,30.0,45,0.00,,,0.00,381,weatherlink.com 1.10,2013-04-20 18:54:00,
2013-04-20 13:09:00,50.6,29.0,30.30,NNW,327,21.0,32.0,43,0.00,,,0.00,954,weatherlink.com 1.10,2013-04-20 19:09:00,
2013-04-20 13:24:00,50.0,29.0,30.30,NNW,336,15.0,26.0,44,0.00,,,0.00,287,weatherlink.com 1.10,2013-04-20 19:24:00,
2013-04-20 13:39:00,50.4,30.0,30.30,NNW,327,18.0,24.0,45,0.00,,,0.00,227,weatherlink.com 1.10,2013-04-20 19:39:00,
2013-04-20 13:54:00,50.6,29.0,30.29,NNW,337,31.0,32.0,44,0.00,,,0.00,297,weatherlink.com 1.10,2013-04-20 19:54:00,
2013-04-20 14:09:00,50.6,29.0,30.29,North,349,14.0,28.0,44,0.00,,,0.00,218,weatherlink.com 1.10,2013-04-20 20:09:00,
2013-04-20 14:24:00,50.6,29.0,30.28,WNW,290,20.0,25.0,43,0.00,,,0.00,190,weatherlink.com 1.10,2013-04-20 20:24:00,
2013-04-20 14:39:00,51.3,28.0,30.29,NW,314,13.0,31.0,41,0.00,,,0.00,227,weatherlink.com 1.10,2013-04-20 20:39:00,
2013-04-20 14:54:00,50.3,28.0,30.29,NNW,329,16.0,33.0,43,0.00,,,0.00,221,weatherlink.com 1.10,2013-04-20 20:54:00,
2013-04-20 15:09:00,50.5,28.0,30.29,NNW,328,17.0,29.0,42,0.00,,,0.00,272,weatherlink.com 1.10,2013-04-20 21:09:00,
2013-04-20 15:24:00,50.0,28.0,30.29,NNW,334,24.0,27.0,43,0.00,,,0.00,213,weatherlink.com 1.10,2013-04-20 21:24:00,
2013-04-20 15:39:00,50.9,29.0,30.29,NNW,336,13.0,20.0,44,0.00,,,0.00,264,weatherlink.com 1.10,2013-04-20 21:39:00,
2013-04-20 15:54:00,50.5,29.0,30.29,SW,232,5.0,25.0,44,0.00,,,0.00,267,weatherlink.com 1.10,2013-04-20 21:54:00,
2013-04-20 16:09:00,51.6,28.0,30.29,West,281,10.0,15.0,41,0.00,,,0.00,232,weatherlink.com 1.10,2013-04-20 22:09:00,
2013-04-20 16:24:00,49.1,29.0,30.29,NNW,348,16.0,28.0,47,0.00,,,0.00,179,weatherlink.com 1.10,2013-04-20 22:24:00,
2013-04-20 16:39:00,48.3,32.0,30.29,NNW,341,9.0,28.0,54,0.00,,,0.00,160,weatherlink.com 1.10,2013-04-20 22:39:00,
2013-04-20 16:54:00,49.1,29.0,30.29,North,5,8.0,24.0,47,0.00,,,0.00,225,weatherlink.com 1.10,2013-04-20 22:54:00,
2013-04-20 17:09:00,49.8,31.0,30.29,WNW,295,9.0,18.0,48,0.00,,,0.00,123,weatherlink.com 1.10,2013-04-20 23:09:00,
2013-04-20 17:24:00,50.0,29.0,30.29,WNW,296,20.0,30.0,45,0.00,,,0.00,160,weatherlink.com 1.10,2013-04-20 23:24:00,
2013-04-20 17:39:00,50.3,28.0,30.30,NNW,336,18.0,25.0,43,0.00,,,0.00,457,weatherlink.com 1.10,2013-04-20 23:39:00,
2013-04-20 17:54:00,51.2,28.0,30.30,NNW,330,16.0,23.0,41,0.00,,,0.00,543,weatherlink.com 1.10,2013-04-20 23:54:00,
2013-04-20 18:09:00,-999.0,-99.9,30.31,North,-999,-999.0,-999.0,-999,0.00,,,0.00,,weatherlink.com 1.10,2013-04-21 00:09:00,
2013-04-20 18:25:00,48.6,32.0,30.30,North,5,20.0,22.0,54,0.00,,,0.00,462,weatherlink.com 1.10,2013-04-21 00:25:00,
2013-04-20 18:40:00,46.5,32.0,30.31,North,5,16.0,28.0,57,0.00,,,0.00,178,weatherlink.com 1.10,2013-04-21 00:40:00,
2013-04-20 18:55:00,45.9,32.0,30.31,North,360,13.0,20.0,59,0.00,,,0.00,149,weatherlink.com 1.10,2013-04-21 00:55:00,
2013-04-20 19:10:00,46.1,32.0,30.32,North,9,15.0,18.0,59,0.00,,,0.00,109,weatherlink.com 1.10,2013-04-21 01:10:00,
2013-04-20 19:25:00,48.1,29.0,30.33,WSW,246,12.0,31.0,47,0.00,,,0.00,114,weatherlink.com 1.10,2013-04-21 01:25:00,
2013-04-20 19:40:00,48.2,28.0,30.32,WSW,249,11.0,28.0,45,0.00,,,0.00,95,weatherlink.com 1.10,2013-04-21 01:40:00,
2013-04-20 19:55:00,47.9,27.0,30.33,West,277,7.0,21.0,44,0.00,,,0.00,65,weatherlink.com 1.10,2013-04-21 01:55:00,
2013-04-20 20:10:00,47.2,28.0,30.33,NNW,340,2.0,11.0,48,0.00,,,0.00,40,weatherlink.com 1.10,2013-04-21 02:10:00,
2013-04-20 20:25:00,46.9,28.0,30.34,SW,217,8.0,29.0,49,0.00,,,0.00,7,weatherlink.com 1.10,2013-04-21 02:25:00,
2013-04-20 20:40:00,46.4,31.0,30.34,SSW,197,10.0,12.0,55,0.00,,,0.00,0,weatherlink.com 1.10,2013-04-21 02:40:00,
2013-04-20 20:55:00,46.0,30.0,30.34,SSW,194,5.0,13.0,54,0.00,,,0.00,0,weatherlink.com 1.10,2013-04-21 02:55:00,
2013-04-20 21:10:00,45.7,30.0,30.35,ESE,122,2.0,3.0,54,0.00,,,0.00,0,weatherlink.com 1.10,2013-04-21 03:10:00,
2013-04-20 21:25:00,45.6,30.0,30.36,SW,227,8.0,11.0,55,0.00,,,0.00,0,weatherlink.com 1.10,2013-04-21 03:25:00,
2013-04-20 21:40:00,44.6,31.0,30.36,SW,229,9.0,10.0,60,0.00,,,0.00,0,weatherlink.com 1.10,2013-04-21 03:40:00,
2013-04-20 21:55:00,44.2,32.0,30.37,SW,225,16.0,21.0,62,0.00,,,0.00,0,weatherlink.com 1.10,2013-04-21 03:55:00,
2013-04-20 22:10:00,43.4,33.0,30.37,SSW,198,11.0,17.0,66,0.00,,,0.00,0,weatherlink.com 1.10,2013-04-21 04:10:00,
2013-04-20 22:25:00,43.4,32.0,30.37,South,172,5.0,12.0,65,0.00,,,0.00,0,weatherlink.com 1.10,2013-04-21 04:25:00,
2013-04-20 22:40:00,43.3,33.0,30.37,South,186,12.0,16.0,66,0.00,,,0.00,0,weatherlink.com 1.10,2013-04-21 04:40:00,
2013-04-20 22:55:00,43.1,33.0,30.36,SSE,153,6.0,10.0,67,0.00,,,0.00,0,weatherlink.com 1.10,2013-04-21 04:55:00,
2013-04-20 23:10:00,43.1,32.0,30.36,SE,133,5.0,10.0,66,0.00,,,0.00,0,weatherlink.com 1.10,2013-04-21 05:10:00,
2013-04-20 23:25:00,43.4,32.0,30.36,SE,144,10.0,16.0,64,0.00,,,0.00,0,weatherlink.com 1.10,2013-04-21 05:25:00,
2013-04-20 23:40:00,43.6,32.0,30.36,SSE,165,7.0,15.0,63,0.00,,,0.00,0,weatherlink.com 1.10,2013-04-21 05:40:00,
2013-04-20 23:55:00,43.4,32.0,30.36,SSE,160,12.0,19.0,64,0.00,,,0.00,0,weatherlink.com 1.10,2013-04-21 05:55:00,